Regional Weather Roundup
Issued by NWS

Home | Current Version | Previous Version | Text Only | Print | Product List | Glossary Off
Versions: 1 2 3 4 5 6 7 8 9 10 11 12 13 14 15 16 17 18 19 20 21 22 23 24 25 26 27 28 29 30 31 32 33 34 35 36 37 38 39 40 41 42 43 44 45 46 47 48 49 50

464
ASUS44 KJAN 222203
RWRMS

MISSISSIPPI HOURLY WEATHER ROUNDUP
NATIONAL WEATHER SERVICE JACKSON MS
500 PM CDT WED OCT 22 2014

NOTE: "FAIR: INDICATES FEW OR NO CLOUDS BELOW 12,000 FEET WITH NO
SIGNIFICANT WEATHER AND/OR OBSTRUCTIONS TO VISIBILITY.

MSZ001>002-007>008-010>013-018>021-025>028-034>036-222300-
NORTHWEST MISSISSIPPI

CITY           SKY/WX    TMP DP  RH WIND       PRES   REMARKS
CLARKSDALE     FAIR      68  43  40 N10       30.16S
CLEVELAND      FAIR      70  46  41 NE10      30.13S
GREENWOOD      SUNNY     69  43  38 NE13      30.12F
GREENVILLE     SUNNY     72  41  32 NE15      30.13S
GRENADA          N/A    N/A N/A N/A MISG        N/A
OLIVE BRANCH   SUNNY     64  43  45 NE10      30.17F
OXFORD         FAIR      64  43  45 NE8       30.17S
TUNICA         CLEAR     66  41  39 NE8       30.16S
$$

MSZ003>006-009-014>017-022>024-029>033-037>039-222300-
NORTHEAST MISSISSIPPI

CITY           SKY/WX    TMP DP  RH WIND       PRES   REMARKS
COLUMBUS AFB   SUNNY     69  42  38 NE8       30.13S
CORINTH        FAIR      66  41  39 NE9       30.16S
GOLDN TRIANGLE SUNNY     68  43  40 NE12      30.12S
STARKVILLE     FAIR      66  43  42 N9        30.12S
TUPELO         SUNNY     67  42  40 NE12      30.14F
$$

MSZ040-058-222300-
CENTRAL MISSISSIPPI

CITY           SKY/WX    TMP DP  RH WIND       PRES   REMARKS
JACKSON INTL   SUNNY     73  48  41 NE8       30.09S
JACKSON HAWKNS SUNNY     74  45  35 N6        30.09S
MERIDIAN KEY   SUNNY     70  43  37 N10       30.09S
MERIDIAN NAS   SUNNY     71  42  35 N12       30.10S
RAYMOND        FAIR      73  68  83 N5        30.09F
VICKSBURG      SUNNY     74  48  39 NE12      30.10S
$$

MSZ059>079-222300-
SOUTH MISSISSIPPI

CITY           SKY/WX    TMP DP  RH WIND       PRES   REMARKS
BROOKHAVEN     FAIR      75  48  38 N7        30.09S
COLUMBIA         N/A    N/A N/A N/A MISG        N/A
HATTIESBURG    SUNNY     76  51  41 N6        30.06S
MCCOMB         SUNNY     77  47  34 N10       30.06S
NATCHEZ        SUNNY     73  52  46 N9        30.08S
PINE BELT      SUNNY     75  46  35 N9        30.08S
$$

MSZ080>082-222300-
COASTAL MISSISSIPPI

CITY           SKY/WX    TMP DP  RH WIND       PRES   REMARKS
BAY ST LOUIS   SUNNY     79  46  31 N9        30.02S
BILOXI         SUNNY     78  52  40 N8        30.01F
PASCAGOULA     SUNNY     78  51  38 N9        30.01F
GULFPORT       SUNNY     78  50  37 NE9       30.01S
$$



USA.gov is the U.S. government's official web portal to all federal, state and local government web resources and services.